Wind_Speed
12 13 14 14 14 14 14 13 12 11 9 8 7 7 6 6 6 5 4 3 3 3 3 3 4 5 5 5 5 6 7 7 7 7 7 7 7 8 9 9 9 9 10
12 12 13 13 14 14 14 13 13 12 11 9 8 8 7 7 7 6 6 5 4 4 4 4 4 5 6 6 7 7 8 8 8 8 8 9 9 10 11 11 11 12 13
12 12 12 12 13 14 13 13 13 13 12 11 10 9 9 8 7 7 7 6 5 5 5 6 6 6 6 7 7 8 8 9 9 9 10 10 10 11 12 13 13 13 14
11 11 11 11 12 12 13 13 14 14 13 11 10 10 9 9 8 8 8 7 7 6 6 6 6 7 7 7 8 8 9 10 10 10 11 11 12 12 13 13 14 14 15
9 10 10 11 11 11 12 13 13 13 13 12 12 11 10 9 9 9 8 8 8 8 7 7 7 8 8 8 8 9 10 10 11 11 12 12 12 13 13 14 15 16 16
9 9 10 10 10 10 11 12 13 14 13 13 13 12 11 10 9 9 9 8 8 8 8 8 9 9 9 9 10 10 10 11 11 12 13 13 13 14 14 15 16 16 17
9 9 9 9 10 10 11 12 13 14 13 13 13 13 12 11 10 10 10 10 9 9 9 10 10 10 10 10 11 11 11 11 12 13 14 14 14 15 15 16 16 16 16
8 9 8 9 9 10 11 12 12 13 13 13 13 13 12 12 11 11 11 11 11 11 11 11 10 11 11 11 11 11 12 12 13 13 14 15 15 16 16 17 17 17 17
8 8 9 9 9 10 11 11 12 13 14 14 13 13 12 12 12 13 13 13 13 13 13 13 13 12 12 12 12 12 12 13 13 14 15 15 16 16 16 16 16 16 15
10 10 10 10 10 10 11 11 12 13 14 14 14 14 13 13 13 13 13 14 14 15 14 13 14 14 14 13 13 13 13 14 14 15 15 15 15 16 16 16 16 16 15
12 11 10 11 11 11 11 12 13 13 13 14 14 14 14 14 14 14 15 15 15 16 15 15 15 14 14 14 13 13 14 14 14 15 15 15 16 16 16 16 16 16 16
13 13 12 12 12 12 13 13 13 14 14 14 15 15 14 14 14 14 15 16 16 17 17 16 16 16 15 14 14 14 14 15 15 15 15 15 15 15 15 15 15 16 16
15 14 13 14 14 14 14 13 14 15 15 15 15 15 15 15 15 15 16 17 17 18 18 18 17 17 16 16 16 15 15 16 16 15 15 15 15 15 15 15 15 16 16
16 15 16 16 17 16 16 15 15 16 16 16 16 16 16 17 17 17 18 18 19 19 19 20 19 18 17 17 18 17 17 17 16 16 15 15 15 15 15 16 16 16 16
18 18 18 17 18 19 18 17 17 17 17 17 17 17 18 18 18 19 19 20 20 20 21 21 21 21 20 19 19 18 17 17 16 16 16 16 15 15 16 16 16 16 16
21 20 20 19 20 20 20 20 20 20 20 19 18 18 19 19 20 20 21 21 21 21 21 21 22 22 22 20 18 18 17 17 16 16 16 16 16 16 16 17 16 16 16
23 23 22 22 22 22 21 21 21 21 20 19 19 20 20 20 21 21 22 22 23 22 22 22 22 22 21 20 20 19 18 17 17 17 17 16 17 17 17 17 17 17 17
26 25 24 24 23 23 23 22 22 22 21 21 21 21 21 21 23 23 23 23 23 23 23 23 23 22 22 21 21 20 19 19 19 18 18 18 18 18 18 19 19 19 19
29 27 26 26 26 25 24 24 23 23 23 23 23 23 23 23 24 24 24 24 23 24 24 24 24 23 23 22 21 21 21 20 20 20 20 20 19 20 20 20 20 19 19
30 28 28 28 28 27 26 26 25 24 24 24 24 24 24 25 25 25 25 25 25 25 25 25 25 24 24 23 22 22 21 21 21 21 21 21 21 21 21 21 21 20 20
31 30 29 30 29 29 29 28 28 27 27 27 26 26 26 26 26 27 26 26 27 27 27 27 26 26 25 24 23 22 22 21 21 22 22 22 22 22 21 21 21 21 22
32 32 31 31 31 30 30 30 31 30 30 30 29 28 28 28 28 28 28 28 28 29 29 28 27 26 26 24 23 23 23 22 22 22 22 22 23 22 21 22 22 23 23
33 33 32 32 32 32 32 32 32 32 32 32 31 31 31 30 30 30 30 29 29 29 29 28 27 27 26 26 25 24 24 23 23 22 23 23 23 22 22 22 23 24 24
35 34 35 35 35 34 34 32 32 33 33 33 33 33 32 32 32 32 32 31 31 31 30 29 28 28 27 27 26 25 25 24 23 23 24 24 23 23 24 24 24 25 25
36 37 37 36 35 35 35 33 33 33 34 34 34 33 33 33 33 33 33 32 31 31 31 31 31 30 29 27 27 27 26 25 25 25 25 25 25 25 25 25 25 25 26
37 37 37 36 36 35 35 35 35 35 35 34 34 34 34 35 34 34 33 32 32 32 32 32 32 31 31 29 28 28 28 27 27 28 27 27 26 26 26 27 26 26 27
Wind_Direction
33 34 34 34 35 35 37 38 36 35 35 33 29 25 21 19 17 15 9 355 333 320 303 288 288 287 285 287 286 289 292 293 295 301 303 301 298 297 297 299 304 303 302
26 28 28 32 33 35 35 36 36 33 32 28 24 20 17 12 10 7 358 351 336 318 304 297 291 288 285 282 285 289 290 293 295 297 300 300 300 297 296 298 303 301 298
22 25 28 30 30 32 32 33 31 29 29 28 25 19 12 6 3 1 354 348 340 324 307 298 292 290 289 291 291 294 294 294 297 298 298 297 297 298 298 296 297 299 299
16 20 22 25 26 28 29 30 27 25 24 22 19 14 9 3 2 1 357 348 337 325 311 305 300 295 293 294 293 294 295 294 294 295 297 297 296 296 299 299 297 298 299
6 12 15 19 21 22 23 22 21 20 19 17 15 14 11 6 3 3 359 352 345 335 321 309 303 299 296 294 292 295 296 296 296 295 298 299 298 298 299 299 298 297 298
347 2 7 10 13 16 17 18 16 14 12 11 10 11 10 8 6 3 359 351 344 338 331 323 315 308 303 298 295 294 295 296 298 298 299 301 302 302 299 297 298 298 299
331 346 356 1 5 7 9 10 11 9 8 7 5 4 3 2 1 359 357 353 343 337 330 323 321 316 310 303 299 295 292 295 297 298 299 299 301 303 303 300 298 299 301
323 329 336 343 348 353 357 359 1 3 4 2 1 1 2 359 357 354 354 352 347 339 332 327 321 314 310 306 302 303 300 299 300 300 300 299 300 301 304 302 299 299 301
299 311 318 326 332 339 344 347 350 354 357 358 357 357 357 356 356 354 353 351 346 340 335 331 327 321 315 308 306 305 305 304 303 303 303 303 304 305 305 303 303 302 302
292 295 303 312 318 324 331 334 337 342 346 350 352 352 351 350 351 352 349 345 342 339 337 334 331 326 321 314 307 305 304 304 304 304 304 304 304 305 306 306 305 304 303
290 294 299 303 307 314 319 323 327 330 335 339 343 344 345 346 346 348 349 345 343 342 340 337 336 331 325 319 312 309 308 308 307 306 305 306 305 305 305 306 305 305 304
285 289 292 295 296 301 308 313 317 320 324 329 333 336 339 342 343 342 342 342 341 340 339 337 333 331 328 322 315 311 309 310 309 309 308 308 309 309 309 307 306 307 306
279 280 282 285 289 296 299 303 307 311 315 320 323 326 330 334 336 335 333 337 337 336 335 334 330 327 325 322 316 312 310 309 308 308 309 309 309 311 310 310 310 309 307
272 275 276 278 284 290 293 295 298 303 307 312 313 317 321 324 326 329 332 334 333 332 331 330 328 325 321 319 317 315 311 309 309 308 308 309 310 311 311 311 311 311 309
273 274 273 277 280 284 288 290 293 298 300 306 307 310 314 317 319 321 323 326 327 328 328 328 327 324 321 318 316 316 313 310 308 308 308 309 311 311 312 312 311 310 310
268 272 273 275 279 281 283 286 291 296 298 301 302 304 308 310 312 314 317 320 322 323 323 324 324 323 322 319 317 316 313 310 309 308 308 309 309 310 309 310 311 311 310
265 270 273 274 276 278 282 285 287 291 294 297 298 301 304 306 308 310 312 315 318 320 321 321 322 320 320 319 318 314 313 313 312 310 308 307 309 310 310 309 309 308 309
263 266 269 272 275 276 279 281 284 286 289 291 293 297 300 301 302 304 307 311 314 316 318 320 321 319 319 317 314 313 311 308 307 307 308 307 306 306 309 308 308 307 306
262 264 265 267 270 271 274 277 280 283 286 287 289 292 294 296 297 299 303 306 309 313 315 317 319 317 316 314 311 310 307 304 304 304 304 304 304 304 306 306 306 305 304
263 264 264 264 267 268 270 273 277 279 281 284 286 288 291 295 297 300 299 301 305 308 310 312 313 313 313 312 310 313 310 306 305 305 304 303 303 303 304 306 305 304 304
262 261 262 263 265 268 267 268 271 274 277 280 282 284 288 292 295 298 299 300 303 304 305 306 308 310 311 310 311 313 311 309 308 307 306 303 301 300 301 303 304 304 304
261 259 260 262 264 266 268 268 270 271 274 277 280 282 284 288 292 295 296 297 298 301 302 303 305 307 309 310 310 311 310 308 307 307 307 305 304 302 301 301 302 303 304
259 258 258 261 263 265 267 268 269 269 272 275 277 279 282 285 288 291 292 292 293 296 299 301 303 304 306 307 307 306 306 305 305 305 306 305 303 301 301 303 303 303 302
257 258 259 260 261 262 265 266 267 269 271 273 275 277 279 282 284 286 287 288 289 292 295 297 298 299 300 301 302 302 302 302 302 304 304 303 302 301 302 302 302 302 301
258 259 260 260 261 261 263 264 267 269 271 272 273 275 277 280 282 283 284 286 287 290 292 294 294 295 295 295 296 297 298 299 300 302 302 301 300 300 301 301 301 301 302
259 260 261 262 262 263 263 264 266 269 270 271 274 274 276 278 279 281 283 285 286 289 291 292 292 292 292 291 292 293 293 294 297 298 298 297 297 297 297 298 298 300 301
Height
5917 5916 5915 5914 5912 5910 5909 5908 5907 5905 5904 5904 5903 5902 5901 5900 5900 5899 5898 5898 5897 5897 5897 5897 5897 5897 5897 5897 5897 5897 5897 5896 5896 5896 5895 5895 5894 5893 5893 5892 5892 5891 5890
5919 5918 5917 5915 5914 5912 5911 5910 5909 5907 5906 5905 5904 5903 5902 5901 5900 5899 5899 5898 5898 5897 5897 5897 5897 5896 5896 5896 5896 5895 5895 5895 5894 5894 5893 5893 5893 5891 5891 5890 5889 5888 5887
5921 5920 5918 5917 5916 5915 5913 5912 5910 5909 5907 5906 5905 5904 5903 5902 5901 5900 5899 5898 5897 5897 5896 5896 5896 5895 5895 5895 5894 5894 5893 5893 5893 5892 5892 5891 5890 5890 5889 5888 5887 5885 5885
5923 5922 5920 5919 5918 5916 5915 5914 5912 5910 5909 5907 5906 5904 5903 5902 5901 5900 5899 5898 5897 5896 5895 5895 5894 5894 5894 5893 5893 5893 5892 5891 5891 5890 5889 5889 5888 5887 5886 5885 5884 5883 5881
5923 5923 5922 5920 5919 5918 5917 5915 5914 5912 5910 5908 5907 5905 5903 5902 5901 5900 5899 5898 5897 5896 5895 5894 5893 5893 5892 5892 5891 5891 5890 5889 5889 5888 5887 5886 5885 5884 5883 5882 5881 5880 5878
5924 5923 5922 5921 5920 5919 5918 5916 5915 5913 5911 5910 5908 5906 5904 5903 5901 5900 5899 5898 5896 5895 5894 5893 5892 5891 5890 5890 5889 5888 5888 5887 5887 5886 5884 5883 5882 5881 5880 5879 5878 5876 5875
5924 5923 5923 5922 5921 5920 5919 5918 5916 5914 5912 5911 5909 5907 5905 5903 5902 5900 5899 5898 5896 5895 5893 5892 5891 5890 5889 5888 5887 5886 5885 5885 5884 5883 5882 5881 5880 5879 5877 5876 5874 5873 5871
5925 5923 5923 5922 5921 5921 5919 5918 5917 5915 5913 5911 5909 5908 5906 5904 5903 5901 5899 5898 5896 5894 5893 5891 5890 5889 5887 5886 5885 5884 5883 5882 5881 5880 5879 5878 5877 5875 5874 5873 5871 5870 5868
5924 5923 5922 5922 5921 5920 5920 5918 5917 5916 5914 5912 5910 5908 5906 5905 5903 5901 5899 5898 5896 5894 5892 5890 5889 5887 5886 5885 5883 5882 5881 5880 5879 5878 5876 5875 5874 5872 5871 5869 5867 5866 5865
5922 5922 5921 5921 5920 5920 5919 5918 5917 5915 5914 5912 5910 5908 5906 5904 5903 5901 5899 5897 5895 5893 5891 5889 5888 5886 5884 5882 5881 5880 5879 5878 5876 5875 5873 5872 5870 5869 5867 5865 5864 5862 5861
5920 5920 5920 5919 5919 5918 5918 5917 5916 5915 5913 5912 5910 5908 5906 5904 5902 5900 5899 5896 5894 5892 5890 5888 5886 5884 5882 5880 5879 5878 5876 5875 5873 5872 5870 5869 5867 5866 5864 5862 5860 5859 5858
5918 5918 5918 5917 5916 5916 5916 5916 5915 5914 5912 5911 5909 5908 5906 5904 5902 5900 5898 5895 5893 5891 5889 5887 5884 5882 5880 5878 5876 5875 5874 5872 5871 5869 5867 5865 5864 5862 5861 5859 5857 5855 5854
5915 5916 5915 5915 5914 5914 5914 5913 5912 5911 5910 5909 5908 5906 5905 5903 5901 5899 5896 5894 5892 5890 5887 5885 5882 5880 5878 5875 5873 5872 5870 5869 5867 5865 5864 5862 5861 5859 5857 5855 5854 5852 5850
5912 5912 5912 5912 5912 5911 5911 5910 5909 5909 5908 5907 5906 5905 5903 5901 5899 5897 5895 5892 5890 5888 5885 5883 5880 5877 5874 5872 5870 5868 5866 5865 5863 5862 5860 5859 5857 5856 5854 5852 5850 5848 5847
5907 5908 5908 5908 5908 5908 5908 5907 5906 5905 5905 5904 5903 5902 5901 5899 5897 5895 5893 5890 5888 5885 5883 5880 5877 5874 5871 5869 5866 5864 5862 5860 5859 5858 5857 5855 5853 5852 5850 5849 5847 5845 5843
5903 5903 5903 5904 5904 5904 5904 5904 5903 5902 5902 5901 5900 5899 5897 5896 5894 5892 5890 5888 5885 5882 5880 5877 5874 5871 5868 5865 5863 5861 5859 5857 5855 5854 5853 5851 5850 5848 5846 5845 5843 5841 5840
5898 5899 5899 5900 5900 5900 5900 5899 5899 5898 5898 5897 5896 5895 5893 5892 5890 5888 5886 5884 5882 5879 5876 5874 5871 5868 5865 5862 5860 5858 5856 5854 5852 5851 5849 5848 5846 5844 5842 5841 5839 5837 5835
5893 5894 5894 5894 5894 5894 5894 5895 5894 5894 5893 5892 5891 5890 5889 5888 5886 5884 5882 5880 5878 5875 5873 5870 5867 5864 5862 5859 5857 5854 5852 5851 5849 5847 5845 5843 5842 5840 5839 5837 5835 5832 5831
5886 5887 5888 5888 5889 5889 5889 5889 5889 5888 5888 5887 5886 5885 5884 5883 5881 5879 5877 5876 5874 5871 5869 5866 5864 5861 5858 5855 5853 5850 5848 5846 5844 5843 5841 5839 5838 5836 5834 5832 5830 5828 5826
5879 5880 5881 5882 5882 5882 5882 5883 5883 5882 5882 5881 5881 5880 5879 5877 5876 5874 5872 5871 5869 5867 5864 5862 5859 5857 5854 5851 5848 5846 5844 5842 5840 5838 5836 5834 5832 5831 5829 5827 5825 5823 5821
5871 5872 5873 5874 5874 5875 5875 5875 5875 5875 5875 5875 5874 5874 5873 5871 5870 5868 5866 5865 5863 5861 5859 5857 5854 5852 5849 5846 5843 5841 5839 5837 5835 5833 5831 5829 5827 5825 5823 5821 5820 5818 5816
5863 5864 5865 5866 5867 5867 5867 5867 5867 5868 5868 5867 5867 5867 5866 5865 5864 5862 5861 5859 5857 5855 5853 5851 5849 5846 5844 5841 5839 5836 5834 5832 5830 5828 5826 5824 5822 5820 5818 5816 5814 5812 5810
5854 5855 5856 5857 5858 5859 5859 5859 5859 5859 5860 5860 5860 5859 5859 5858 5857 5855 5854 5852 5850 5848 5847 5845 5843 5840 5838 5836 5833 5831 5829 5826 5824 5822 5820 5818 5816 5814 5812 5810 5808 5806 5804
5845 5846 5847 5848 5849 5850 5850 5850 5850 5850 5851 5851 5851 5851 5850 5849 5848 5847 5846 5845 5843 5841 5839 5837 5835 5834 5832 5830 5828 5825 5823 5821 5818 5816 5814 5812 5810 5808 5806 5804 5802 5799 5797
5835 5836 5837 5838 5839 5840 5841 5842 5842 5842 5842 5842 5842 5842 5841 5841 5840 5839 5838 5837 5835 5834 5832 5830 5828 5826 5825 5823 5821 5819 5817 5815 5812 5810 5808 5806 5804 5802 5800 5797 5795 5793 5791
5825 5826 5827 5828 5829 5831 5832 5832 5833 5833 5833 5833 5833 5833 5832 5832 5831 5830 5829 5828 5826 5825 5823 5822 5820 5818 5817 5815 5814 5812 5810 5808 5806 5803 5801 5799 5798 5795 5793 5791 5789 5786 5784